Location: La Pernelle
(49.6188°N, 1.2999°W)
Time: 15:08:01
(UTC+00:00)

Genesis I - Pass Details

Date: 12 June 2021
Orbit: 476 x 543 km, 64.5° (Epoch: 04 August)

Event Time Altitude Azimuth Distance (km) Brightness Sun altitude
Rises 22:52:19 0° 236° (SW) 2,581 6.6 -15.4°
Reaches altitude 10° 22:54:31 10° 242° (WSW) 1,713 5.7 -15.5°
Maximum altitude 22:58:13 45° 317° (NW) 704 4.3 -15.7°
Drops below altitude 10° 23:02:01 10° 31° (NNE) 1,764 6.5 -15.8°
Sets 23:04:19 0° 38° (NE) 2,668 7.4 -15.9°
